This demonstration page uses our WeatherBlox Daily Observations layout. Learn more.

Left ArrowRight Arrow

Hourly Observations for September 29, 2020

Temp ( °F °C ) Dew Point ( °F °C ) Humidity (%) Winds ( mph kmh ) Pressure ( in mb ) Visibility ( mi km ) Precip ( " mm )
12:59 am 00:59 Cloudy 73 22.8 67 19.4 81 81 S 8 13 29.93 1013 10 16 0.00 0.00
1:59 am 01:59 Mostly Cloudy 72 22.2 67 19.4 84 84 S 7 11 29.91 1013 10 16 0.00 0.00
2:59 am 02:59 Mostly Cloudy 72 22.2 67 19.4 84 84 S 5 7 29.90 1013 9 14 0.00 0.00
3:59 am 03:59 Mostly Cloudy 72 22.2 67 19.4 84 84 S 7 11 29.89 1012 10 16 0.00 0.00
4:59 am 04:59 Mostly Cloudy 71 21.7 67 19.4 87 87 S 7 11 29.89 1012 10 16 0.00 0.00
5:59 am 05:59 Mostly Cloudy 72 22.2 67 19.4 84 84 SSE 6 9 29.89 1012 10 16 0.00 0.00
6:59 am 06:59 Mostly Cloudy 71 21.7 67 19.4 87 87 VRB 5 7 29.89 1012 9 14 0.00 0.00
7:59 am 07:59 Mostly Cloudy 72 22.2 68 20 87 87 S 5 7 29.90 1013 9 14 0.00 0.00
8:59 am 08:59 Mostly Cloudy 74 23.3 69 20.6 85 85 SSE 7 11 29.89 1012 8 13 0.00 0.00
9:59 am 09:59 Cloudy 75 23.9 71 21.7 88 88 S 5 7 29.90 1013 9 14 0.01 0.25
10:13 am 10:13 Cloudy with Light Rain 75 23.9 71 21.7 88 88 SSW 6 9 29.90 1013 2 3 0.03 0.76
10:17 am 10:17 Cloudy with Light Rain 75 23.9 72 22.2 90 90 S 6 9 29.89 1012 5 8 0.03 0.76
10:59 am 10:59 Cloudy 76 24.4 71 21.7 85 85 S 9 15 29.88 1012 10 16 0.03 0.76
11:59 am 11:59 Cloudy 75 23.9 70 21.1 84 84 SSW 7 11 29.87 1012 10 16 0.00 0.00
12:59 pm 12:59 Mostly Cloudy 78 25.6 72 22.2 82 82 SSE 10 17 29.84 1011 10 16 0.01 0.25
1:59 pm 13:59 Mostly Cloudy 81 27.2 71 21.7 72 72 S 12 19 29.80 1009 10 16 0.00 0.00
2:59 pm 14:59 Cloudy 81 27.2 70 21.1 69 69 SSE 9 15 29.77 1008 10 16 0.00 0.00
3:59 pm 15:59 Cloudy with Light Rain 78 25.6 74 23.3 87 87 S 3 6 29.75 1008 7 11 0.02 0.51
4:59 pm 16:59 Cloudy with Light Rain 76 24.4 72 22.2 88 88 SSW 5 7 29.75 1007 4 6 0.06 1.52
5:12 pm 17:12 Cloudy with Light Rain 76 24.4 72 22.2 88 88 S 5 7 29.74 1007 3 5 0.02 0.51
5:31 pm 17:31 Cloudy with Heavy Rain 75 23.9 72 22.2 90 90 SSW 6 9 29.75 1007 1 2 0.24 6.10
5:40 pm 17:40 Cloudy with Heavy Rain 75 23.9 72 22.2 90 90 VRB 6 9 29.74 1007 2 2 0.37 9.40
5:49 pm 17:49 Cloudy with Light Rain 75 23.9 72 22.2 90 90 S 5 7 29.74 1007 3 5 0.37 9.40
5:59 pm 17:59 Cloudy with Light Rain 75 23.9 72 22.2 90 90 S 3 6 29.75 1007 2 3 0.38 9.65
6:18 pm 18:18 Cloudy with Light Rain 75 23.9 72 22.2 90 90 SSE 3 6 29.75 1007 2 2 0.02 0.51
6:36 pm 18:36 Cloudy with Light Rain 75 23.9 71 21.7 88 88 S 7 11 29.75 1007 2 3 0.03 0.76
6:59 pm 18:59 Cloudy with Light Rain 74 23.3 71 21.7 91 91 S 7 11 29.73 1007 3 5 0.04 1.02
7:59 pm 19:59 Cloudy with Mist and Fog 74 23.3 71 21.7 91 91 S 12 19 29.72 1006 5 8 0.00 0.00
8:59 pm 20:59 Cloudy with Mist and Fog 74 23.3 71 21.7 91 91 S 9 15 29.70 1006 5 8 0.00 0.00
9:59 pm 21:59 Cloudy with Mist and Fog 75 23.9 71 21.7 88 88 SSE 12 19 29.66 1004 5 8 0.00 0.00
10:59 pm 22:59 Cloudy with Mist and Fog 75 23.9 71 21.7 88 88 SSE 15 24 29.64 1004 5 8 0.01 0.25
11:55 pm 23:55 Cloudy with Rain 70 21 66 19 88 88 W 13 20 29.68 1005 2 3 0.21 5.33
11:59 pm 23:59 Cloudy with Heavy Rain 70 21.1 67 19.4 90 90 W 16 26 29.69 1005 2 3 0.28 7.11

Powered by AerisWeather